| time (UTC) | temp F | wind direction | speed MPH | gust MPH | rain 1hr in | rain 24hr in | rain mn in | humidity % | barometer mb |
| 20260507114521 | 59 | 71 | 6.0 | 11.0 | 0.00 | 0.00 | 0.00 | 60 | 1016.3 |
| 20260507114019 | 59 | 61 | 3.0 | 9.0 | 0.00 | 0.00 | 0.00 | 61 | 1016.4 |
| 20260507113517 | 58 | 31 | 6.0 | 9.0 | 0.00 | 0.00 | 0.00 | 61 | 1016.4 |
| 20260507113017 | 58 | 57 | 4.0 | 8.0 | 0.00 | 0.00 | 0.00 | 61 | 1016.1 |
| 20260507112518 | 58 | 56 | 3.0 | 6.0 | 0.00 | 0.00 | 0.00 | 61 | 1016.2 |
| 20260507112016 | 58 | 131 | 3.0 | 10.0 | 0.00 | 0.00 | 0.00 | 61 | 1016.2 |
| 20260507111515 | 58 | 87 | 4.0 | 14.0 | 0.00 | 0.00 | 0.00 | 61 | 1016.1 |
| 20260507111013 | 58 | 73 | 3.0 | 9.0 | 0.00 | 0.00 | 0.00 | 61 | 1015.9 |
| 20260507110013 | 59 | 75 | 3.0 | 9.0 | 0.00 | 0.00 | 0.00 | 61 | 1015.8 |
| 20260507105510 | 59 | 104 | 3.0 | 11.0 | 0.00 | 0.00 | 0.00 | 61 | 1015.7 |
| 20260507105008 | 59 | 59 | 7.0 | 11.0 | 0.00 | 0.00 | 0.00 | 61 | 1015.6 |
| 20260507104511 | 59 | 52 | 8.0 | 13.0 | 0.00 | 0.00 | 0.00 | 60 | 1015.7 |
| 20260507104007 | 59 | 102 | 7.0 | 12.0 | 0.00 | 0.00 | 0.00 | 60 | 1015.6 |
| 20260507103508 | 60 | 57 | 4.0 | 8.0 | 0.00 | 0.00 | 0.00 | 60 | 1015.6 |
| 20260507103006 | 60 | 60 | 3.0 | 5.0 | 0.00 | 0.00 | 0.00 | 59 | 1015.5 |
| 20260507102505 | 60 | 36 | 1.0 | 5.0 | 0.00 | 0.00 | 0.00 | 59 | 1015.4 |
| 20260507102002 | 60 | 75 | 2.0 | 5.0 | 0.00 | 0.00 | 0.00 | 59 | 1015.1 |
| 20260507101501 | 60 | 122 | 3.0 | 5.0 | 0.00 | 0.00 | 0.00 | 59 | 1014.9 |
| 20260507101001 | 60 | 108 | 1.0 | 6.0 | 0.00 | 0.00 | 0.00 | 58 | 1014.9 |
| 20260507100002 | 60 | 131 | 4.0 | 8.0 | 0.00 | 0.00 | 0.00 | 58 | 1015.2 |
| 20260507095501 | 60 | 117 | 3.0 | 8.0 | 0.00 | 0.00 | 0.00 | 58 | 1015.3 |
| 20260507095001 | 60 | 65 | 3.0 | 8.0 | 0.00 | 0.00 | 0.00 | 58 | 1015.2 |
| 20260507094500 | 60 | 131 | 1.0 | 9.0 | 0.00 | 0.00 | 0.00 | 58 | 1015.2 |
| 20260507094100 | 60 | 138 | 5.0 | 9.0 | 0.00 | 0.00 | 0.00 | 58 | 1015.3 |
| 20260507093600 | 61 | 152 | 3.0 | 10.0 | 0.00 | 0.00 | 0.00 | 58 | 1015.1 |
| 20260507093100 | 61 | 131 | 2.0 | 10.0 | 0.00 | 0.00 | 0.00 | 58 | 1014.9 |
| 20260507092603 | 61 | 173 | 3.0 | 10.0 | 0.00 | 0.00 | 0.00 | 58 | 1014.7 |
| 20260507092059 | 61 | 131 | 4.0 | 10.0 | 0.00 | 0.00 | 0.00 | 57 | 1014.8 |
| 20260507091559 | 61 | 59 | 5.0 | 10.0 | 0.00 | 0.00 | 0.00 | 57 | 1014.8 |
| 20260507091057 | 61 | 140 | 2.0 | 8.0 | 0.00 | 0.00 | 0.00 | 57 | 1014.9 |
| 20260507090057 | 61 | 150 | 3.0 | 9.0 | 0.00 | 0.00 | 0.00 | 57 | 1014.9 |
| 20260507085555 | 62 | 164 | 3.0 | 11.0 | 0.00 | 0.00 | 0.00 | 56 | 1014.7 |
| 20260507085054 | 62 | 168 | 6.0 | 11.0 | 0.00 | 0.00 | 0.00 | 56 | 1015.0 |
| 20260507084555 | 62 | 143 | 4.0 | 11.0 | 0.00 | 0.00 | 0.00 | 56 | 1015.1 |
| 20260507084055 | 62 | 154 | 4.0 | 11.0 | 0.00 | 0.00 | 0.00 | 56 | 1015.2 |
| 20260507083552 | 62 | 166 | 4.0 | 11.0 | 0.00 | 0.00 | 0.00 | 56 | 1015.3 |
| 20260507083051 | 62 | 176 | 4.0 | 11.0 | 0.00 | 0.00 | 0.00 | 55 | 1015.1 |
| 20260507082550 | 63 | 191 | 5.0 | 13.0 | 0.00 | 0.00 | 0.00 | 55 | 1015.1 |
| 20260507082053 | 63 | 161 | 6.0 | 11.0 | 0.00 | 0.00 | 0.00 | 55 | 1014.9 |
| 20260507081552 | 63 | 178 | 3.0 | 6.0 | 0.00 | 0.00 | 0.00 | 55 | 1015.0 |
| 20260507081049 | 63 | 171 | 5.0 | 10.0 | 0.00 | 0.00 | 0.00 | 55 | 1015.2 |
| 20260507080051 | 63 | 188 | 3.0 | 11.0 | 0.00 | 0.00 | 0.00 | 55 | 1015.0 |
| 20260507075549 | 63 | 135 | 3.0 | 11.0 | 0.00 | 0.00 | 0.00 | 55 | 1014.8 |
| 20260507075047 | 63 | 148 | 5.0 | 11.0 | 0.00 | 0.00 | 0.00 | 54 | 1014.7 |
| 20260507074600 | 64 | 135 | 5.0 | 11.0 | 0.00 | 0.00 | 0.00 | 54 | 1014.5 |
| 20260507074146 | 64 | 157 | 4.0 | 11.0 | 0.00 | 0.00 | 0.00 | 54 | 1014.6 |
| 20260507073549 | 64 | 172 | 4.0 | 9.0 | 0.00 | 0.00 | 0.00 | 54 | 1014.6 |
| 20260507073044 | 64 | 150 | 3.0 | 9.0 | 0.00 | 0.00 | 0.00 | 54 | 1014.6 |
| 20260507072544 | 64 | 166 | 5.0 | 9.0 | 0.00 | 0.00 | 0.00 | 54 | 1014.6 |
| 20260507072042 | 64 | 174 | 4.0 | 9.0 | 0.00 | 0.00 | 0.00 | 54 | 1014.7 |
| 20260507071543 | 65 | 206 | 4.0 | 6.0 | 0.00 | 0.00 | 0.00 | 54 | 1014.5 |
| 20260507071042 | 65 | 178 | 4.0 | 9.0 | 0.00 | 0.00 | 0.00 | 54 | 1014.5 |
| 20260507070043 | 65 | 183 | 4.0 | 8.0 | 0.00 | 0.00 | 0.00 | 54 | 1014.4 |
| 20260507065542 | 65 | 176 | 3.0 | 8.0 | 0.00 | 0.00 | 0.00 | 53 | 1014.4 |
| 20260507065041 | 65 | 199 | 4.0 | 7.0 | 0.00 | 0.00 | 0.00 | 53 | 1014.5 |
| 20260507064541 | 66 | 168 | 3.0 | 9.0 | 0.00 | 0.00 | 0.00 | 53 | 1014.2 |
| 20260507064041 | 66 | 183 | 4.0 | 9.0 | 0.00 | 0.00 | 0.00 | 53 | 1014.4 |
| 20260507063538 | 66 | 195 | 4.0 | 9.0 | 0.00 | 0.00 | 0.00 | 53 | 1014.4 |
| 20260507063039 | 66 | 201 | 4.0 | 9.0 | 0.00 | 0.00 | 0.00 | 53 | 1014.3 |
| 20260507062537 | 66 | 180 | 4.0 | 9.0 | 0.00 | 0.00 | 0.00 | 53 | 1014.2 |
| 20260507062040 | 67 | 148 | 3.0 | 9.0 | 0.00 | 0.00 | 0.00 | 52 | 1014.1 |
| 20260507061536 | 67 | 149 | 3.0 | 9.0 | 0.00 | 0.00 | 0.00 | 52 | 1014.1 |
| 20260507061034 | 67 | 183 | 4.0 | 8.0 | 0.00 | 0.00 | 0.00 | 51 | 1013.9 |
| 20260507060035 | 67 | 195 | 4.0 | 9.0 | 0.00 | 0.00 | 0.00 | 50 | 1013.7 |
| 20260507055534 | 67 | 160 | 3.0 | 10.0 | 0.00 | 0.00 | 0.00 | 50 | 1013.6 |
| 20260507055035 | 68 | 146 | 4.0 | 11.0 | 0.00 | 0.00 | 0.00 | 49 | 1013.5 |
| 20260507054533 | 68 | 164 | 5.0 | 12.0 | 0.00 | 0.00 | 0.00 | 49 | 1013.4 |
| 20260507054033 | 68 | 147 | 4.0 | 10.0 | 0.00 | 0.00 | 0.00 | 49 | 1013.5 |
| 20260507053533 | 68 | 152 | 3.0 | 6.0 | 0.00 | 0.00 | 0.00 | 48 | 1013.4 |
| 20260507053035 | 69 | 106 | 2.0 | 8.0 | 0.00 | 0.00 | 0.00 | 48 | 1013.4 |
| 20260507052531 | 69 | 145 | 3.0 | 8.0 | 0.00 | 0.00 | 0.00 | 48 | 1013.2 |
| 20260507052031 | 69 | 199 | 3.0 | 10.0 | 0.00 | 0.00 | 0.00 | 47 | 1013.2 |
| 20260507051532 | 69 | 127 | 3.0 | 10.0 | 0.00 | 0.00 | 0.00 | 47 | 1013.1 |
| 20260507051029 | 70 | 135 | 2.0 | 6.0 | 0.00 | 0.00 | 0.00 | 47 | 1013.1 |
| 20260507050032 | 70 | 185 | 2.0 | 6.0 | 0.00 | 0.00 | 0.00 | 46 | 1012.9 |
| 20260507045531 | 70 | 127 | 3.0 | 8.0 | 0.00 | 0.00 | 0.00 | 46 | 1012.9 |
| 20260507045030 | 70 | 156 | 2.0 | 8.0 | 0.00 | 0.00 | 0.00 | 45 | 1013.0 |
| 20260507044530 | 70 | 117 | 2.0 | 7.0 | 0.00 | 0.00 | 0.00 | 45 | 1012.8 |
| 20260507044029 | 70 | 154 | 3.0 | 7.0 | 0.00 | 0.00 | 0.00 | 45 | 1012.9 |
| 20260507043529 | 71 | 168 | 2.0 | 5.0 | 0.00 | 0.00 | 0.00 | 45 | 1012.8 |
| 20260507043029 | 71 | 136 | 2.0 | 6.0 | 0.00 | 0.00 | 0.00 | 44 | 1012.8 |
| 20260507042529 | 71 | 139 | 2.0 | 7.0 | 0.00 | 0.00 | 0.00 | 44 | 1012.8 |
| 20260507042029 | 71 | 177 | 4.0 | 8.0 | 0.00 | 0.00 | 0.00 | 43 | 1012.7 |
| 20260507041528 | 71 | 104 | 3.0 | 6.0 | 0.00 | 0.00 | 0.00 | 43 | 1012.7 |
| 20260507041028 | 71 | 154 | 2.0 | 5.0 | 0.00 | 0.00 | 0.00 | 42 | 1012.7 |
| 20260507040027 | 72 | 164 | 2.0 | 5.0 | 0.00 | 0.00 | 0.00 | 41 | 1012.5 |
| 20260507035524 | 72 | 181 | 2.0 | 5.0 | 0.00 | 0.00 | 0.00 | 41 | 1012.5 |
| 20260507035024 | 72 | 157 | 3.0 | 5.0 | 0.00 | 0.00 | 0.00 | 40 | 1012.4 |
| 20260507034523 | 73 | 117 | 3.0 | 8.0 | 0.00 | 0.00 | 0.00 | 39 | 1012.5 |
| 20260507034023 | 73 | 150 | 3.0 | 8.0 | 0.00 | 0.00 | 0.00 | 39 | 1012.4 |
| 20260507033523 | 73 | 162 | 4.0 | 10.0 | 0.00 | 0.00 | 0.00 | 39 | 1012.2 |
| 20260507033024 | 73 | 156 | 5.0 | 10.0 | 0.00 | 0.00 | 0.00 | 38 | 1012.1 |
| 20260507032523 | 74 | 193 | 6.0 | 10.0 | 0.00 | 0.00 | 0.00 | 38 | 1012.1 |
| 20260507032025 | 74 | 152 | 5.0 | 9.0 | 0.00 | 0.00 | 0.00 | 37 | 1012.0 |
| 20260507031521 | 74 | 170 | 4.0 | 10.0 | 0.00 | 0.00 | 0.00 | 36 | 1012.1 |
| 20260507031025 | 74 | 136 | 3.0 | 6.0 | 0.00 | 0.00 | 0.00 | 32 | 1012.0 |
| 20260507030023 | 74 | 152 | 2.0 | 5.0 | 0.00 | 0.00 | 0.00 | 31 | 1011.7 |
| 20260507025522 | 74 | 140 | 2.0 | 5.0 | 0.00 | 0.00 | 0.00 | 31 | 1011.5 |
| 20260507025022 | 74 | 177 | 3.0 | 5.0 | 0.00 | 0.00 | 0.00 | 30 | 1011.5 |
| 20260507024525 | 75 | 174 | 2.0 | 5.0 | 0.00 | 0.00 | 0.00 | 28 | 1011.5 |
| 20260507024025 | 75 | 169 | 1.0 | 3.0 | 0.00 | 0.00 | 0.00 | 27 | 1011.4 |
| 20260507023522 | 75 | 157 | 1.0 | 3.0 | 0.00 | 0.00 | 0.00 | 26 | 1011.3 |
| 20260507023021 | 75 | 156 | 1.0 | 4.0 | 0.00 | 0.00 | 0.00 | 26 | 1011.1 |
| 20260507022525 | 75 | 164 | 1.0 | 5.0 | 0.00 | 0.00 | 0.00 | 26 | 1010.9 |
| 20260507022025 | 75 | 162 | 2.0 | 5.0 | 0.00 | 0.00 | 0.00 | 25 | 1010.9 |
| 20260507021522 | 76 | 192 | 3.0 | 5.0 | 0.00 | 0.00 | 0.00 | 26 | 1010.9 |
| 20260507021020 | 76 | 191 | 3.0 | 5.0 | 0.00 | 0.00 | 0.00 | 25 | 1010.7 |
| 20260507020019 | 76 | 221 | 2.0 | 3.0 | 0.00 | 0.00 | 0.00 | 25 | 1010.5 |
| 20260507015518 | 77 | 218 | 1.0 | 3.0 | 0.00 | 0.00 | 0.00 | 24 | 1010.4 |
| 20260507015018 | 77 | 185 | 1.0 | 3.0 | 0.00 | 0.00 | 0.00 | 24 | 1010.4 |
| 20260507014526 | 77 | 170 | 1.0 | 3.0 | 0.00 | 0.00 | 0.00 | 24 | 1010.3 |
| 20260507014018 | 77 | 153 | 1.0 | 2.0 | 0.00 | 0.00 | 0.00 | 24 | 1010.3 |
| 20260507013517 | 77 | 153 | 1.0 | 3.0 | 0.00 | 0.00 | 0.00 | 24 | 1010.3 |
| 20260507013017 | 77 | 153 | 1.0 | 3.0 | 0.00 | 0.00 | 0.00 | 23 | 1010.3 |
| 20260507012519 | 77 | 153 | 1.0 | 3.0 | 0.00 | 0.00 | 0.00 | 23 | 1010.1 |
| 20260507012019 | 78 | 153 | 1.0 | 4.0 | 0.00 | 0.00 | 0.00 | 23 | 1010.1 |
| 20260507011519 | 78 | 163 | 1.0 | 4.0 | 0.00 | 0.00 | 0.00 | 23 | 1010.0 |
| 20260507011017 | 78 | 173 | 1.0 | 5.0 | 0.00 | 0.00 | 0.00 | 23 | 1010.0 |
| 20260507010017 | 78 | 185 | 2.0 | 4.0 | 0.00 | 0.00 | 0.00 | 22 | 1009.9 |
| 20260507005517 | 78 | 127 | 1.0 | 4.0 | 0.00 | 0.00 | 0.00 | 22 | 1009.8 |
| 20260507005017 | 79 | 104 | 1.0 | 6.0 | 0.00 | 0.00 | 0.00 | 22 | 1009.8 |
| 20260507004520 | 79 | 122 | 2.0 | 6.0 | 0.00 | 0.00 | 0.00 | 21 | 1009.8 |
| 20260507004020 | 79 | 147 | 2.0 | 6.0 | 0.00 | 0.00 | 0.00 | 21 | 1009.8 |
| 20260507003515 | 79 | 110 | 3.0 | 6.0 | 0.00 | 0.00 | 0.00 | 21 | 1009.8 |
| 20260507003015 | 80 | 81 | 3.0 | 6.0 | 0.00 | 0.00 | 0.00 | 20 | 1009.8 |
| 20260507002516 | 80 | 127 | 3.0 | 6.0 | 0.00 | 0.00 | 0.00 | 18 | 1009.7 |
| 20260507002016 | 80 | 127 | 3.0 | 5.0 | 0.00 | 0.00 | 0.00 | 18 | 1009.7 |
| 20260507001521 | 81 | 70 | 3.0 | 5.0 | 0.00 | 0.00 | 0.00 | 16 | 1009.5 |
| 20260507001017 | 81 | 68 | 3.0 | 9.0 | 0.00 | 0.00 | 0.00 | 14 | 1009.6 |
| 20260507000022 | 81 | 54 | 4.0 | 9.0 | 0.00 | 0.00 | 0.00 | 13 | 1009.6 |
| 20260506235515 | 82 | 67 | 2.0 | 5.0 | 0.00 | 0.00 | 0.00 | 13 | 1009.6 |
| 20260506235015 | 82 | 86 | 3.0 | 5.0 | 0.00 | 0.00 | 0.00 | 13 | 1009.6 |
| 20260506234516 | 82 | 61 | 2.0 | 6.0 | 0.00 | 0.00 | 0.00 | 13 | 1009.5 |
| 20260506234016 | 82 | 46 | 2.0 | 6.0 | 0.00 | 0.00 | 0.00 | 13 | 1009.4 |
| 20260506233516 | 83 | 31 | 3.0 | 7.0 | 0.00 | 0.00 | 0.00 | 12 | 1009.5 |
| 20260506233015 | 83 | 39 | 2.0 | 10.0 | 0.00 | 0.00 | 0.00 | 12 | 1009.3 |
| 20260506232515 | 83 | 60 | 5.0 | 8.0 | 0.00 | 0.00 | 0.00 | 12 | 1009.3 |
| 20260506232014 | 83 | 54 | 3.0 | 8.0 | 0.00 | 0.00 | 0.00 | 12 | 1009.3 |
| 20260506231515 | 83 | 50 | 3.0 | 9.0 | 0.00 | 0.00 | 0.00 | 12 | 1009.4 |
| 20260506231018 | 83 | 41 | 4.0 | 9.0 | 0.00 | 0.00 | 0.00 | 13 | 1009.4 |
| 20260506230017 | 84 | 86 | 2.0 | 9.0 | 0.00 | 0.00 | 0.00 | 12 | 1009.3 |
| 20260506225517 | 84 | 70 | 4.0 | 11.0 | 0.00 | 0.00 | 0.00 | 12 | 1009.3 |
| 20260506225014 | 84 | 61 | 7.0 | 11.0 | 0.00 | 0.00 | 0.00 | 11 | 1009.2 |
| 20260506224514 | 84 | 41 | 3.0 | 13.0 | 0.00 | 0.00 | 0.00 | 12 | 1009.2 |
| 20260506224015 | 85 | 15 | 8.0 | 13.0 | 0.00 | 0.00 | 0.00 | 11 | 1009.2 |
| 20260506223513 | 85 | 81 | 7.0 | 12.0 | 0.00 | 0.00 | 0.00 | 11 | 1009.3 |
| 20260506223013 | 85 | 19 | 2.0 | 10.0 | 0.00 | 0.00 | 0.00 | 11 | 1009.2 |
| 20260506222513 | 84 | 49 | 6.0 | 10.0 | 0.00 | 0.00 | 0.00 | 12 | 1009.5 |
| 20260506222016 | 84 | 56 | 3.0 | 8.0 | 0.00 | 0.00 | 0.00 | 11 | 1009.6 |
| 20260506221513 | 84 | 348 | 2.0 | 8.0 | 0.00 | 0.00 | 0.00 | 11 | 1009.6 |
| 20260506221017 | 85 | 17 | 4.0 | 9.0 | 0.00 | 0.00 | 0.00 | 11 | 1009.5 |
| 20260506220021 | 85 | 2 | 4.0 | 8.0 | 0.00 | 0.00 | 0.00 | 11 | 1009.5 |
| 20260506215520 | 85 | 36 | 3.0 | 8.0 | 0.00 | 0.00 | 0.00 | 12 | 1009.4 |
| 20260506215018 | 85 | 37 | 2.0 | 10.0 | 0.00 | 0.00 | 0.00 | 11 | 1009.4 |
| 20260506214514 | 85 | 347 | 3.0 | 10.0 | 0.00 | 0.00 | 0.00 | 10 | 1009.5 |
| 20260506214014 | 84 | 1 | 3.0 | 8.0 | 0.00 | 0.00 | 0.00 | 10 | 1009.6 |
| 20260506213513 | 84 | 341 | 4.0 | 9.0 | 0.00 | 0.00 | 0.00 | 10 | 1009.6 |
| 20260506213013 | 84 | 341 | 4.0 | 11.0 | 0.00 | 0.00 | 0.00 | 11 | 1009.6 |
| 20260506212513 | 84 | 300 | 6.0 | 12.0 | 0.00 | 0.00 | 0.00 | 11 | 1009.7 |
| 20260506212015 | 84 | 322 | 6.0 | 12.0 | 0.00 | 0.00 | 0.00 | 11 | 1009.7 |
| 20260506211512 | 84 | 5 | 6.0 | 12.0 | 0.00 | 0.00 | 0.00 | 12 | 1009.8 |
| 20260506211013 | 84 | 324 | 4.0 | 12.0 | 0.00 | 0.00 | 0.00 | 11 | 1009.7 |
| 20260506210012 | 84 | 17 | 5.0 | 12.0 | 0.00 | 0.00 | 0.00 | 12 | 1009.9 |
| 20260506205512 | 84 | 353 | 8.0 | 13.0 | 0.00 | 0.00 | 0.00 | 11 | 1009.9 |
| 20260506205012 | 85 | 356 | 5.0 | 12.0 | 0.00 | 0.00 | 0.00 | 11 | 1009.8 |
| 20260506204513 | 86 | 358 | 5.0 | 12.0 | 0.00 | 0.00 | 0.00 | 11 | 1009.9 |
| 20260506204011 | 86 | 350 | 7.0 | 11.0 | 0.00 | 0.00 | 0.00 | 10 | 1009.9 |
| 20260506203517 | 86 | 43 | 3.0 | 14.0 | 0.00 | 0.00 | 0.00 | 10 | 1010.1 |
| 20260506203011 | 87 | 329 | 9.0 | 14.0 | 0.00 | 0.00 | 0.00 | 9 | 1010.1 |
| 20260506202511 | 86 | 323 | 4.0 | 8.0 | 0.00 | 0.00 | 0.00 | 10 | 1010.2 |
| 20260506202011 | 86 | 6 | 4.0 | 10.0 | 0.00 | 0.00 | 0.00 | 11 | 1010.1 |
| 20260506201516 | 86 | 355 | 8.0 | 11.0 | 0.00 | 0.00 | 0.00 | 11 | 1010.2 |
| 20260506201011 | 86 | 312 | 5.0 | 12.0 | 0.00 | 0.00 | 0.00 | 11 | 1010.0 |
| 20260506200012 | 86 | 20 | 5.0 | 12.0 | 0.00 | 0.00 | 0.00 | 11 | 1010.1 |
| 20260506195512 | 86 | 46 | 4.0 | 13.0 | 0.00 | 0.00 | 0.00 | 11 | 1010.2 |
| 20260506195013 | 87 | 27 | 5.0 | 13.0 | 0.00 | 0.00 | 0.00 | 12 | 1010.2 |
| 20260506194516 | 87 | 3 | 4.0 | 11.0 | 0.00 | 0.00 | 0.00 | 11 | 1010.2 |
| 20260506194010 | 87 | 40 | 3.0 | 11.0 | 0.00 | 0.00 | 0.00 | 13 | 1010.2 |
| 20260506193508 | 86 | 71 | 5.0 | 14.0 | 0.00 | 0.00 | 0.00 | 14 | 1010.2 |
| 20260506193010 | 85 | 352 | 6.0 | 14.0 | 0.00 | 0.00 | 0.00 | 13 | 1010.4 |
| 20260506192511 | 85 | 27 | 5.0 | 13.0 | 0.00 | 0.00 | 0.00 | 14 | 1010.5 |
| 20260506192010 | 86 | 60 | 6.0 | 13.0 | 0.00 | 0.00 | 0.00 | 13 | 1010.5 |
| 20260506191507 | 85 | 297 | 6.0 | 10.0 | 0.00 | 0.00 | 0.00 | 14 | 1010.5 |
| 20260506191006 | 86 | 39 | 4.0 | 12.0 | 0.00 | 0.00 | 0.00 | 15 | 1010.6 |
| 20260506190006 | 85 | 4 | 4.0 | 11.0 | 0.00 | 0.00 | 0.00 | 17 | 1010.7 |
| 20260506185504 | 84 | 35 | 3.0 | 10.0 | 0.00 | 0.00 | 0.00 | 19 | 1010.9 |
| 20260506185004 | 84 | 66 | 7.0 | 10.0 | 0.00 | 0.00 | 0.00 | 17 | 1010.6 |
| 20260506184504 | 85 | 356 | 4.0 | 9.0 | 0.00 | 0.00 | 0.00 | 18 | 1010.9 |
| 20260506184005 | 85 | 27 | 5.0 | 12.0 | 0.00 | 0.00 | 0.00 | 20 | 1011.0 |
| 20260506183504 | 85 | 43 | 7.0 | 12.0 | 0.00 | 0.00 | 0.00 | 18 | 1011.1 |
| 20260506183004 | 85 | 25 | 6.0 | 11.0 | 0.00 | 0.00 | 0.00 | 19 | 1011.1 |
| 20260506182503 | 85 | 44 | 4.0 | 11.0 | 0.00 | 0.00 | 0.00 | 17 | 1011.2 |
| 20260506182004 | 85 | 6 | 4.0 | 10.0 | 0.00 | 0.00 | 0.00 | 18 | 1011.2 |
| 20260506181502 | 84 | 340 | 3.0 | 14.0 | 0.00 | 0.00 | 0.00 | 21 | 1011.2 |
| 20260506181059 | 83 | 25 | 8.0 | 14.0 | 0.00 | 0.00 | 0.00 | 22 | 1011.2 |
| 20260506180107 | 82 | 76 | 7.0 | 14.0 | 0.00 | 0.00 | 0.00 | 25 | 1011.3 |
| 20260506175557 | 81 | 52 | 6.0 | 10.0 | 0.00 | 0.00 | 0.00 | 25 | 1011.3 |
| 20260506175101 | 81 | 50 | 6.0 | 12.0 | 0.00 | 0.00 | 0.00 | 26 | 1011.3 |
| 20260506174558 | 81 | 56 | 7.0 | 12.0 | 0.00 | 0.00 | 0.00 | 26 | 1011.4 |
| 20260506174100 | 80 | 22 | 7.0 | 12.0 | 0.00 | 0.00 | 0.00 | 27 | 1011.5 |
| 20260506173558 | 81 | 63 | 7.0 | 12.0 | 0.00 | 0.00 | 0.00 | 25 | 1011.5 |
| 20260506173059 | 81 | 81 | 5.0 | 11.0 | 0.00 | 0.00 | 0.00 | 26 | 1011.5 |
| 20260506172557 | 81 | 345 | 4.0 | 13.0 | 0.00 | 0.00 | 0.00 | 27 | 1011.6 |
| 20260506172054 | 81 | 44 | 7.0 | 14.0 | 0.00 | 0.00 | 0.00 | 28 | 1011.7 |
| 20260506171558 | 80 | 58 | 6.0 | 14.0 | 0.00 | 0.00 | 0.00 | 29 | 1011.5 |
| 20260506171056 | 80 | 20 | 3.0 | 12.0 | 0.00 | 0.00 | 0.00 | 30 | 1011.5 |
| 20260506170105 | 80 | 77 | 5.0 | 8.0 | 0.00 | 0.00 | 0.00 | 30 | 1011.5 |
| 20260506165555 | 80 | 14 | 3.0 | 8.0 | 0.00 | 0.00 | 0.00 | 31 | 1011.5 |
| 20260506165055 | 79 | 34 | 3.0 | 8.0 | 0.00 | 0.00 | 0.00 | 32 | 1011.5 |
| 20260506164557 | 79 | 39 | 3.0 | 12.0 | 0.00 | 0.00 | 0.00 | 31 | 1011.3 |
| 20260506164053 | 79 | 47 | 7.0 | 12.0 | 0.00 | 0.00 | 0.00 | 32 | 1011.2 |
| 20260506163555 | 79 | 43 | 5.0 | 11.0 | 0.00 | 0.00 | 0.00 | 32 | 1011.3 |
| 20260506163111 | 79 | 27 | 4.0 | 12.0 | 0.00 | 0.00 | 0.00 | 33 | 1011.3 |
| 20260506162553 | 78 | 5 | 6.0 | 13.0 | 0.00 | 0.00 | 0.00 | 34 | 1011.3 |
| 20260506162054 | 78 | 53 | 8.0 | 14.0 | 0.00 | 0.00 | 0.00 | 35 | 1011.3 |
| 20260506161556 | 78 | 30 | 7.0 | 13.0 | 0.00 | 0.00 | 0.00 | 36 | 1011.2 |
| 20260506161052 | 78 | 39 | 8.0 | 13.0 | 0.00 | 0.00 | 0.00 | 36 | 1011.1 |
| 20260506160050 | 78 | 50 | 8.0 | 14.0 | 0.00 | 0.00 | 0.00 | 36 | 1011.0 |
| 20260506155552 | 78 | 41 | 7.0 | 13.0 | 0.00 | 0.00 | 0.00 | 36 | 1010.9 |
| 20260506155047 | 79 | 36 | 8.0 | 13.0 | 0.00 | 0.00 | 0.00 | 35 | 1010.8 |
| 20260506154606 | 80 | 44 | 5.0 | 11.0 | 0.00 | 0.00 | 0.00 | 34 | 1010.6 |
| 20260506154046 | 80 | 44 | 5.0 | 9.0 | 0.00 | 0.00 | 0.00 | 34 | 1010.6 |
| 20260506153544 | 79 | 21 | 4.0 | 10.0 | 0.00 | 0.00 | 0.00 | 34 | 1010.6 |
| 20260506153054 | 79 | 52 | 6.0 | 10.0 | 0.00 | 0.00 | 0.00 | 33 | 1010.6 |
| 20260506152543 | 79 | 62 | 5.0 | 9.0 | 0.00 | 0.00 | 0.00 | 33 | 1010.5 |
| 20260506152042 | 79 | 8 | 3.0 | 7.0 | 0.00 | 0.00 | 0.00 | 32 | 1010.4 |
| 20260506151541 | 79 | 337 | 3.0 | 7.0 | 0.00 | 0.00 | 0.00 | 31 | 1010.3 |
| 20260506151040 | 78 | 356 | 3.0 | 6.0 | 0.00 | 0.00 | 0.00 | 31 | 1010.3 |
| 20260506150040 | 78 | 43 | 2.0 | 4.0 | 0.00 | 0.00 | 0.00 | 32 | 1010.3 |
| 20260506145538 | 77 | 8 | 2.0 | 7.0 | 0.00 | 0.00 | 0.00 | 33 | 1010.3 |
| 20260506145037 | 77 | 4 | 2.0 | 7.0 | 0.00 | 0.00 | 0.00 | 33 | 1010.2 |
| 20260506144535 | 76 | 4 | 2.0 | 7.0 | 0.00 | 0.00 | 0.00 | 34 | 1010.2 |
| 20260506144034 | 75 | 32 | 3.0 | 6.0 | 0.00 | 0.00 | 0.00 | 32 | 1010.3 |
| 20260506143537 | 75 | 59 | 2.0 | 4.0 | 0.00 | 0.00 | 0.00 | 30 | 1010.3 |
| 20260506143045 | 75 | 150 | 1.0 | 3.0 | 0.00 | 0.00 | 0.00 | 31 | 1010.2 |
| 20260506142536 | 75 | 127 | 2.0 | 3.0 | 0.00 | 0.00 | 0.00 | 32 | 1010.1 |
| 20260506142031 | 75 | 127 | 1.0 | 3.0 | 0.00 | 0.00 | 0.00 | 33 | 1010.1 |
| 20260506141535 | 74 | 178 | 0.0 | 3.0 | 0.00 | 0.00 | 0.00 | 34 | 1010.1 |
| 20260506141034 | 74 | 162 | 2.0 | 4.0 | 0.00 | 0.00 | 0.00 | 34 | 1010.1 |
| 20260506140031 | 74 | 100 | 1.0 | 3.0 | 0.00 | 0.00 | 0.00 | 32 | 1010.2 |
| 20260506135529 | 74 | 93 | 2.0 | 3.0 | 0.00 | 0.00 | 0.00 | 32 | 1010.2 |
| 20260506135028 | 73 | 89 | 0.0 | 3.0 | 0.00 | 0.00 | 0.00 | 34 | 1010.1 |
| 20260506134527 | 72 | 107 | 0.0 | 3.0 | 0.00 | 0.00 | 0.00 | 35 | 1009.8 |
| 20260506134026 | 72 | 191 | 1.0 | 4.0 | 0.00 | 0.00 | 0.00 | 36 | 1009.8 |
| 20260506133525 | 71 | 178 | 0.0 | 4.0 | 0.00 | 0.00 | 0.00 | 37 | 1009.8 |
| 20260506133023 | 71 | 200 | 2.0 | 4.0 | 0.00 | 0.00 | 0.00 | 36 | 1009.8 |
| 20260506132524 | 70 | 139 | 2.0 | 4.0 | 0.00 | 0.00 | 0.00 | 36 | 1009.8 |
| 20260506132024 | 70 | 117 | 0.0 | 2.0 | 0.00 | 0.00 | 0.00 | 38 | 1009.9 |
| 20260506131522 | 69 | 223 | 0.0 | 4.0 | 0.00 | 0.00 | 0.00 | 39 | 1009.8 |
| 20260506131025 | 69 | 174 | 1.0 | 3.0 | 0.00 | 0.00 | 0.00 | 39 | 1009.7 |
| 20260506130624 | 68 | 202 | 0.0 | 2.0 | 0.00 | 0.00 | 0.00 | 42 | 1009.7 |
| 20260506130023 | 68 | 202 | 1.0 | 2.0 | 0.00 | 0.00 | 0.00 | 43 | 1009.6 |
| 20260506125522 | 67 | 202 | 1.0 | 3.0 | 0.00 | 0.00 | 0.00 | 43 | 1009.7 |
| 20260506125022 | 67 | 210 | 0.0 | 3.0 | 0.00 | 0.00 | 0.00 | 44 | 1009.6 |
| 20260506124522 | 67 | 212 | 2.0 | 4.0 | 0.00 | 0.00 | 0.00 | 45 | 1009.7 |
| 20260506124021 | 67 | 212 | 1.0 | 4.0 | 0.00 | 0.00 | 0.00 | 45 | 1009.8 |
| 20260506123520 | 67 | 351 | 0.0 | 3.0 | 0.00 | 0.00 | 0.00 | 45 | 1009.6 |
| 20260506123019 | 67 | 351 | 1.0 | 4.0 | 0.00 | 0.00 | 0.00 | 45 | 1009.4 |
| 20260506122520 | 67 | 351 | 2.0 | 8.0 | 0.00 | 0.00 | 0.00 | 45 | 1009.2 |
| 20260506122018 | 67 | 352 | 2.0 | 8.0 | 0.00 | 0.00 | 0.00 | 45 | 1009.1 |
| 20260506121517 | 67 | 327 | 1.0 | 6.0 | 0.00 | 0.00 | 0.00 | 44 | 1008.8 |
| 20260506121016 | 67 | 54 | 0.0 | 2.0 | 0.00 | 0.00 | 0.00 | 45 | 1008.4 |
| 20260506120017 | 67 | 54 | 1.0 | 3.0 | 0.00 | 0.00 | 0.00 | 44 | 1008.2 |
| 20260506115516 | 67 | 54 | 0.0 | 7.0 | 0.00 | 0.00 | 0.00 | 44 | 1008.2 |
| 20260506115017 | 67 | 53 | 4.0 | 7.0 | 0.00 | 0.00 | 0.00 | 44 | 1008.3 |